Location: Tucson
(32.2217°N, 110.9265°W)
Time: 00:34:39
(UTC-07:00)

OTV 5 (USA 277) - Visible Passes

Search period start: 25 November 2017 00:00
Search period end: 05 December 2017 00:00
Orbit: 404 x 417 km, 43.0° (Epoch: 07 September)

Date Brightness Start Highest point End Pass type
(mag) Time Alt. Az. Time Alt. Az. Time Alt. Az.
28 Nov ? 19:08:42 10° SSW 19:10:16 22° SSW 19:10:16 22° SSW visible
29 Nov ? 18:18:15 10° S 18:20:49 20° SE 18:21:56 17° ESE visible
29 Nov ? 19:54:42 10° WSW 19:54:43 10° WSW 19:54:43 10° WSW visible
30 Nov ? 19:03:30 10° WSW 19:06:17 57° W 19:06:17 57° W visible
01 Dec ? 18:12:29 10° SW 18:15:48 62° SSE 18:17:49 22° ENE visible
01 Dec ? 19:50:33 10° WNW 19:50:35 10° WNW 19:50:35 10° WNW visible
02 Dec ? 18:59:04 10° W 19:02:02 31° NNW 19:02:02 31° NNW visible
03 Dec ? 18:07:43 10° WSW 18:10:59 46° NNW 18:13:27 16° NE visible
04 Dec ? 18:55:08 10° WNW 18:57:34 18° NNW 18:57:34 18° NNW visible
